Location: Bismarck
(46.7731°N, 100.8200°W)
Time: 20:22:22
(UTC-06:00)

ISS - Pass Details

Date: 28 November 2017
Orbit: 402 x 407 km, 51.6° (Epoch: 10 December)

Event Time Altitude Azimuth Distance (km) Brightness Sun altitude
Rises 20:32:48 0° 262° (W) 2,325 1.0 -36.1°
Enters shadow 20:33:42 - 264° (W) 1,957 0.5 -36.2°
Reaches altitude 10° 20:34:56 10° 269° (W) 1,466 - -36.4°
Maximum altitude 20:38:07 46° 344° (NNW) 558 - -37.0°
Drops below altitude 10° 20:41:18 10° 60° (ENE) 1,466 - -37.5°
Sets 20:43:26 0° 66° (ENE) 2,327 - -37.9°
